CDT,Max TemperatureF,Mean TemperatureF,Min TemperatureF,Max Dew PointF,MeanDew PointF,Min DewpointF,Max Humidity, Mean Humidity, Min Humidity, Max Sea Level PressureIn, Mean Sea Level PressureIn, Min Sea Level PressureIn, Max VisibilityMiles, Mean VisibilityMiles, Min VisibilityMiles, Max Wind SpeedMPH, Mean Wind SpeedMPH, Max Gust SpeedMPH,PrecipitationIn, CloudCover, Events, WindDirDegrees
2012-9-1,102,82,61,58,54,44,84,50,16,29.95,29.88,29.79,10,10,10,28,16,35,0.00,0,,156
2012-9-2,95,84,73,59,55,50,52,38,24,29.89,29.82,29.78,10,10,10,25,15,33,0.02,0,,252
2012-9-3,96,81,66,61,58,54,66,47,27,29.98,29.85,29.74,10,10,10,24,11,35,T,1,Rain-Thunderstorm,154
2012-9-4,100,77,54,58,47,28,72,41,9,29.88,29.79,29.65,10,10,10,22,8,29,0.00,0,,240
2012-9-5,81,69,56,48,39,34,60,40,19,30.05,29.96,29.80,10,10,10,18,10,24,0.00,0,,318
2012-9-6,88,71,53,48,43,38,59,40,21,29.96,29.87,29.77,10,10,10,25,12,31,0.00,0,,97
2012-9-7,74,63,51,54,45,37,86,57,27,30.20,30.12,29.98,10,10,10,24,11,31,0.04,2,Rain,324
2012-9-8,87,68,49,44,37,30,66,41,16,30.20,30.13,30.04,10,10,10,29,13,37,0.00,0,,298
2012-9-9,84,62,39,37,33,30,70,43,16,30.25,30.13,29.92,10,10,10,28,12,36,0.00,0,,180
2012-9-10,101,83,65,44,41,36,48,30,11,29.90,29.70,29.58,10,10,10,33,20,43,0.00,0,,195
2012-9-11,85,72,59,47,40,34,60,39,17,30.00,29.74,29.59,10,10,10,28,15,37,0.01,1,Rain,301
2012-9-12,67,60,53,51,48,41,89,65,40,30.32,30.21,30.04,10,10,8,13,6,17,0.01,3,Rain,265
2012-9-13,82,65,47,47,41,28,80,49,17,30.39,30.32,30.24,10,10,10,21,9,30,0.00,0,,231
2012-9-14,81,66,50,39,32,29,52,34,15,30.35,30.26,30.15,10,10,10,14,8,22,0.00,0,,275
2012-9-15,93,74,55,42,37,32,47,30,12,30.14,29.99,29.89,10,10,10,23,16,30,0.00,0,,199
2012-9-16,87,69,51,43,38,36,55,37,18,30.04,29.92,29.81,10,10,10,37,13,44,0.00,0,,49
2012-9-17,68,56,44,45,37,24,92,60,27,30.17,30.12,30.06,10,10,10,26,11,35,0.00,3,,336
2012-9-18,83,62,41,35,31,26,49,33,17,30.12,29.95,29.79,10,10,10,21,10,26,0.00,1,,228
2012-9-19,75,63,50,39,33,28,39,29,19,30.05,29.91,29.75,10,10,10,33,15,43,0.00,0,,291
2012-9-20,75,61,47,35,32,28,46,35,23,30.07,30.00,29.91,10,10,10,13,6,18,T,2,Rain,216
2012-9-21,77,63,48,36,34,31,54,38,21,30.10,29.97,29.91,10,10,10,25,13,35,0.00,0,,316
2012-9-22,63,49,34,31,26,22,75,49,23,30.36,30.28,30.12,10,10,10,15,5,20,0.00,0,,51
2012-9-23,79,59,38,34,28,21,59,39,19,30.31,30.19,30.05,10,10,10,26,11,31,0.00,0,,141
2012-9-24,81,66,51,35,33,30,44,32,20,30.04,29.93,29.83,10,10,10,22,9,30,0.00,0,,247
2012-9-25,83,64,44,37,34,32,58,37,16,29.96,29.89,29.84,10,10,9,12,4,15,0.00,0,,288
2012-9-26,80,63,45,38,37,35,70,47,23,30.14,30.07,29.96,10,10,10,14,8,16,0.00,0,,131
2012-9-27,83,68,52,46,37,32,50,34,18,30.17,30.13,30.07,10,10,9,16,8,20,0.00,1,,166
2012-9-28,82,66,49,40,34,28,61,39,17,30.17,30.11,30.06,10,10,10,14,6,20,0.00,0,,148
2012-9-29,84,70,56,45,36,30,51,34,17,30.10,30.03,29.95,10,10,10,21,9,24,0.00,0,,179
2012-9-30,85,72,58,52,45,37,62,45,28,30.01,29.94,29.89,10,10,10,30,10,37,T,1,,255